Date,TemperatureHighF,TemperatureAvgF,TemperatureLowF,DewpointHighF,DewpointAvgF,DewpointLowF,HumidityHigh,HumidityAvg,HumidityLow,PressureMaxIn,PressureMinIn,WindSpeedMaxMPH,WindSpeedAvgMPH,GustSpeedMaxMPH,PrecipitationSumIn
2013-1-1,41,31,17,27,15,1,82,53,27,29.58,29.28,17,4,31,0.00
2013-1-2,33,18,8,18,6,-7,75,57,41,29.75,29.50,14,3,24,0.00
2013-1-3,30,16,0,-3,-9,-16,75,36,14,29.78,29.57,10,1,14,0.00
2013-1-4,41,27,13,24,18,-11,94,70,19,29.59,29.42,13,2,20,0.00
2013-1-5,46,33,20,24,19,9,85,57,24,29.89,29.41,14,2,24,0.00
2013-1-6,48,32,21,30,25,17,95,77,43,29.85,29.49,8,1,14,0.00
2013-1-7,42,31,18,30,21,11,98,69,29,30.05,29.53,11,2,19,0.00
2013-1-8,49,31,18,30,23,17,99,77,39,30.00,29.89,9,1,17,0.00
2013-1-9,44,34,21,36,28,21,99,79,49,30.04,29.56,11,1,20,0.00
2013-1-10,50,42,30,29,23,19,78,49,30,30.10,29.62,17,5,30,0.00
2013-1-11,42,33,25,36,28,22,99,81,58,30.17,29.85,2,0,5,0.12
2013-1-12,44,39,35,43,38,35,99,99,98,29.85,29.65,2,0,5,0.01
2013-1-13,50,44,38,49,44,38,99,99,99,29.78,29.57,4,0,8,0.01
2013-1-14,66,51,40,54,41,25,99,73,38,29.84,29.45,12,2,23,0.00
2013-1-15,47,37,30,28,24,22,80,61,40,29.95,29.82,8,1,13,0.00
2013-1-16,34,32,29,34,30,24,99,94,74,29.88,29.42,2,0,3,0.00
2013-1-17,46,33,26,38,25,7,99,76,41,29.74,29.44,11,2,19,0.25
2013-1-18,31,21,14,10,-2,-15,67,39,15,30.09,29.67,12,3,27,0.00
2013-1-19,49,36,18,32,20,7,79,55,33,30.00,29.48,12,2,21,0.00
2013-1-20,56,40,28,33,23,5,80,53,18,29.53,29.11,16,5,33,0.00
2013-1-21,31,24,16,21,8,0,97,54,28,29.72,29.43,12,2,23,0.00
2013-1-22,28,19,10,21,8,-4,99,64,28,29.71,29.39,14,3,22,0.00
2013-1-23,18,10,2,1,-13,-27,63,38,12,29.79,29.67,14,3,26,0.00
2013-1-24,21,9,-2,-10,-16,-23,63,34,13,29.89,29.68,17,4,31,0.00
2013-1-25,26,16,6,7,-13,-25,63,28,10,29.95,29.69,12,3,22,0.00
2013-1-26,28,17,10,10,-2,-19,89,49,12,29.88,29.65,12,3,21,0.00
2013-1-27,20,15,8,3,0,-18,65,52,28,30.03,29.71,9,3,16,0.00
2013-1-28,32,23,16,25,11,-1,99,65,27,30.03,29.61,5,1,10,0.00
2013-1-29,38,30,24,32,28,24,99,91,70,29.78,29.62,4,0,6,0.13
2013-1-30,58,38,7,58,38,7,99,99,99,29.74,28.99,4,0,16,0.06
2013-1-31,62,47,7,61,37,7,99,71,33,29.40,28.49,21,7,36,0.37
2013-2-1,39,28,8,20,7,-18,72,42,19,30.14,29.40,16,5,28,0.00
2013-2-2,36,24,13,11,4,-3,68,42,19,30.25,30.03,9,2,14,0.00
2013-2-3,29,24,17,24,20,11,97,86,54,30.05,29.71,6,1,11,0.00
2013-2-4,34,24,17,22,9,-2,99,56,25,29.92,29.68,16,4,30,0.00
2013-2-5,36,25,18,21,10,3,87,54,31,30.05,29.91,7,1,11,0.00
2013-2-6,43,30,20,28,17,2,99,63,32,30.28,29.89,13,2,21,0.01
2013-2-7,36,24,13,3,-4,-14,60,32,12,30.55,30.28,8,2,14,0.00
2013-2-8,25,21,16,21,17,2,99,85,38,30.48,29.66,17,4,30,0.00
2013-2-9,23,18,14,20,12,0,99,78,52,30.17,29.58,16,7,35,0.00
2013-2-10,51,25,8,7,-3,-16,64,35,10,30.37,30.17,13,2,21,0.00
2013-2-11,34,26,14,34,23,4,99,88,64,30.31,29.56,4,0,6,0.18
2013-2-12,49,38,32,35,30,26,99,74,43,29.83,29.54,15,3,27,0.05
2013-2-13,36,34,32,27,26,24,73,69,67,29.78,29.74,5,2,13,0.00
2013-2-14,54,37,27,26,21,13,88,57,20,29.94,29.65,9,1,14,0.00
2013-2-15,56,32,23,32,27,21,98,82,36,29.94,29.80,4,0,9,0.00
2013-2-16,41,35,29,35,27,15,99,74,50,29.90,29.69,8,2,17,0.04
2013-2-17,29,21,16,18,8,-2,95,58,35,29.70,29.38,24,8,40,0.01
2013-2-18,35,23,14,0,-6,-19,51,31,10,30.11,29.70,17,6,33,0.00
2013-2-19,50,36,21,41,20,0,99,57,22,30.14,29.51,6,1,11,0.19
2013-2-20,39,33,26,39,20,8,99,62,30,29.73,29.47,14,5,26,0.00
2013-2-21,36,28,23,16,12,6,70,52,31,30.15,29.70,15,5,25,0.00
2013-2-22,47,33,23,26,19,13,84,60,28,30.38,30.16,9,2,15,0.00
2013-2-23,39,34,28,34,30,23,99,84,68,30.29,29.84,8,1,12,0.01
2013-2-24,35,33,31,35,33,30,99,99,99,29.84,29.65,8,1,17,0.41
2013-2-25,46,34,30,36,32,30,99,92,59,30.20,29.84,4,0,7,0.20
2013-2-26,48,36,29,37,30,27,99,82,55,30.30,30.13,8,1,13,0.01
2013-2-27,42,38,35,41,37,30,99,97,80,30.13,29.52,101,5,101,0.89
2013-2-28,55,40,33,40,36,33,99,86,49,29.59,29.46,5,1,10,0.01
2013-3-1,42,38,30,37,31,28,99,77,59,29.65,29.46,8,2,13,0.00
2013-3-2,49,38,31,31,27,24,81,65,47,29.63,29.57,9,2,14,0.00
2013-3-3,44,36,31,33,28,25,89,74,62,29.60,29.50,11,3,19,0.00
2013-3-4,42,35,30,29,24,20,85,65,44,29.71,29.51,15,5,25,0.00
2013-3-5,52,37,30,35,27,22,97,68,36,30.03,29.71,14,2,24,0.00
2013-3-6,39,36,32,37,34,30,99,95,73,30.09,29.96,16,5,27,0.14
2013-3-7,35,32,30,34,32,27,99,96,75,30.05,29.56,12,2,25,0.44
2013-3-8,42,34,30,36,28,21,99,81,45,30.03,29.85,10,3,18,0.05
2013-3-9,55,39,26,29,22,8,99,56,16,30.25,30.00,9,2,15,0.00
2013-3-10,54,37,22,36,29,22,99,78,39,30.34,30.16,7,1,13,0.00
2013-3-11,56,43,32,41,35,31,99,78,40,30.20,29.98,6,1,11,0.00
2013-3-12,56,48,38,53,48,38,99,98,84,30.05,29.59,7,1,14,0.31
2013-3-13,56,46,35,52,29,12,99,59,19,29.68,29.55,9,3,19,0.00
2013-3-14,41,32,22,25,14,-18,79,49,10,29.74,29.60,16,4,24,1.61
2013-3-15,46,31,0,30,10,-10,88,46,10,29.87,29.63,13,4,26,0.00
2013-3-16,46,34,27,27,11,-5,75,42,12,29.88,29.65,11,2,19,0.00
2013-3-17,41,30,20,17,5,-13,80,40,10,30.30,29.86,14,3,21,0.00
2013-3-18,46,30,15,29,2,-14,99,37,10,30.54,30.25,8,2,12,0.00
2013-3-19,34,31,26,34,31,25,99,99,99,30.25,29.65,11,2,23,0.01
2013-3-20,42,31,24,26,23,18,99,75,41,29.83,29.70,13,2,31,0.19
2013-3-21,50,32,20,29,20,7,99,68,20,29.81,29.60,8,1,11,0.01
2013-3-22,47,35,27,27,19,10,99,56,25,29.75,29.61,10,3,18,0.00
2013-3-23,47,36,25,24,18,11,82,51,24,29.79,29.62,20,4,30,0.00
2013-3-24,52,40,32,28,22,18,77,50,26,29.81,29.69,11,3,21,0.00
2013-3-25,45,36,28,33,28,-100,86,73,62,29.93,29.54,30,-2,30,0.00
2013-3-26,52,41,34,26,22,18,71,49,26,30.07,29.91,11,4,0,0.00
2013-3-27,56,43,29,32,24,20,76,49,29,30.10,29.98,16,5,0,0.00
2013-3-28,50,42,35,34,32,27,94,68,42,30.16,30.08,8,3,0,0.00
2013-3-29,58,45,32,35,31,27,87,58,33,30.17,30.07,8,3,0,0.00
2013-3-30,58,45,32,32,23,14,79,47,20,30.14,30.03,12,3,0,0.00
2013-3-31,62,44,24,39,26,20,93,55,21,30.16,29.77,13,3,0,0.02
2013-4-1,63,46,33,43,35,10,99,68,33,29.84,29.55,18,6,0,0.26
2013-4-2,40,33,27,14,11,8,53,40,28,29.99,29.84,16,7,0,0.01
2013-4-3,48,36,28,15,11,5,53,37,18,30.21,29.97,20,7,0,0.00
2013-4-4,58,42,28,23,16,10,56,36,18,30.35,30.05,15,5,0,0.00
2013-4-5,63,46,35,28,25,18,73,46,18,30.05,29.65,19,5,0,0.00
2013-4-6,48,36,27,22,10,3,59,35,16,30.34,29.91,14,5,0,0.00
2013-4-7,60,41,22,38,25,13,89,57,24,30.34,29.98,12,3,0,0.00
2013-4-8,69,52,38,43,37,32,99,62,26,30.08,29.94,9,3,0,0.00
2013-4-9,72,55,44,49,43,38,95,65,36,30.06,29.84,12,4,0,0.01
2013-4-10,64,51,44,50,46,41,99,85,56,29.99,29.83,7,2,0,0.53
2013-4-11,54,46,40,48,38,25,99,75,40,30.14,29.82,7,3,0,0.10
2013-4-12,40,37,35,36,33,28,99,86,62,30.17,29.79,13,6,0,0.47
2013-4-13,55,44,34,40,36,34,99,78,49,29.92,29.75,7,3,0,0.10
2013-4-14,56,46,36,40,32,26,99,62,36,30.19,29.89,14,4,0,0.00
2013-4-15,61,44,28,37,32,28,99,66,34,30.36,30.19,11,3,0,0.00
2013-4-16,70,52,33,51,42,33,99,71,40,30.37,29.99,14,4,0,0.00
2013-4-17,68,58,44,52,35,26,83,46,24,30.27,30.00,13,4,0,0.00
2013-4-18,64,51,36,43,32,27,77,52,32,30.38,30.06,13,4,0,0.00
2013-4-19,79,64,51,63,56,43,99,78,52,30.07,29.52,16,5,0,0.00
2013-4-20,68,53,43,63,40,22,99,64,35,30.14,29.50,14,6,0,0.47
2013-4-21,56,42,32,29,21,14,84,45,21,30.61,30.16,11,4,0,0.00
2013-4-22,52,41,28,32,29,25,99,66,35,30.67,30.51,16,5,0,0.00
2013-4-23,41,38,32,40,36,28,99,94,79,30.51,30.04,10,4,0,0.01
2013-4-24,79,58,40,52,44,38,99,67,24,30.01,29.63,9,5,0,0.00
2013-4-25,68,55,40,53,35,24,97,52,22,30.15,29.69,18,5,0,0.01
2013-4-26,64,49,32,38,33,26,93,58,32,30.31,30.15,10,3,0,0.00
2013-4-27,69,52,34,40,36,33,99,58,28,30.30,30.13,8,2,0,0.00
2013-4-28,72,55,35,42,36,31,99,55,27,30.21,30.06,8,2,0,0.00
2013-4-29,74,57,42,48,37,30,86,51,27,30.14,30.02,9,2,0,0.00
2013-4-30,72,58,43,40,30,23,73,38,19,30.23,30.11,10,2,0,0.00
2013-5-1,72,56,35,41,34,30,99,50,25,30.33,30.23,9,2,0,0.00
2013-5-2,81,55,38,46,40,35,99,62,24,30.35,30.19,17,3,0,0.00
2013-5-3,61,50,40,45,41,36,94,70,51,30.41,30.24,12,4,0,0.00
2013-5-4,62,50,35,46,38,24,99,68,25,30.24,30.15,11,4,0,0.00
2013-5-5,67,48,31,42,37,30,99,69,40,30.21,30.09,9,2,0,0.00
2013-5-6,75,52,33,48,42,33,99,73,27,30.16,29.98,7,2,0,0.00
2013-5-7,82,64,41,58,50,41,99,68,32,30.04,29.92,7,2,0,0.00
2013-5-8,76,63,52,62,58,51,99,85,56,30.06,29.90,11,3,0,0.05
2013-5-9,70,60,56,64,58,56,99,95,69,29.91,29.73,6,2,0,0.79
2013-5-10,83,66,54,60,57,54,99,77,43,29.82,29.73,7,2,0,0.00
2013-5-11,71,63,58,62,59,55,99,88,73,29.75,29.53,12,3,0,0.32
2013-5-12,73,60,45,60,50,28,99,73,39,29.65,29.40,11,3,0,0.09
2013-5-13,62,49,38,37,31,26,82,51,31,29.88,29.66,14,4,0,0.00
2013-5-14,62,49,36,36,31,27,86,53,30,29.92,29.82,16,3,0,0.00
2013-5-15,68,51,32,51,39,30,99,69,27,29.91,29.51,9,3,0,0.00
2013-5-16,82,67,46,50,41,31,99,49,19,29.67,29.46,17,5,0,0.03
2013-5-17,72,59,46,43,40,36,86,53,30,30.06,29.67,17,4,0,0.00
2013-5-18,76,59,41,49,42,36,99,62,24,30.17,30.06,10,2,0,0.00
2013-5-19,74,57,47,55,51,46,99,82,44,30.21,30.07,8,2,0,0.15
2013-5-20,84,68,55,66,60,55,99,79,52,30.06,29.75,7,2,0,0.09
2013-5-21,77,60,50,66,57,49,99,90,69,29.88,29.72,11,4,0,0.00
2013-5-22,66,56,49,60,53,49,99,93,80,29.93,29.74,8,3,0,0.83
2013-5-23,78,63,52,70,61,52,99,93,74,29.78,29.64,10,2,0,0.34
2013-5-24,73,62,48,68,60,47,99,92,74,29.68,29.49,11,3,0,0.92
2013-5-25,51,46,40,50,46,38,99,98,93,29.67,29.57,10,5,0,0.44
2013-5-26,57,48,39,43,39,38,99,75,51,29.94,29.57,14,5,0,0.11
2013-5-27,76,58,38,45,39,33,99,58,23,30.03,29.91,12,3,0,0.00
2013-5-28,76,59,39,50,44,38,99,65,29,30.11,29.99,8,2,0,0.00
2013-5-29,71,62,53,64,60,50,99,91,78,30.03,29.82,4,2,0,0.53
2013-5-30,93,76,61,70,65,61,99,72,40,29.92,29.82,10,3,0,0.00
2013-5-31,98,82,62,74,66,61,98,63,34,29.94,29.74,10,3,0,0.00
2013-6-1,96,82,65,70,66,60,97,62,31,29.81,29.65,8,3,0,0.00
2013-6-2,93,79,68,71,68,63,98,70,38,29.70,29.51,13,4,0,0.07
2013-6-3,84,70,58,69,62,45,99,81,50,29.69,29.58,8,2,0,0.54
2013-6-4,74,62,50,47,44,40,80,54,35,29.96,29.68,11,4,0,0.00
2013-6-5,78,63,47,52,48,43,98,62,31,30.06,29.93,7,2,0,0.00
2013-6-6,77,64,51,55,51,48,95,65,41,30.05,29.95,6,2,0,0.00
2013-6-7,57,54,52,56,54,52,99,97,89,29.98,29.69,9,3,0,2.12
2013-6-8,80,63,52,66,58,52,99,85,58,29.85,29.50,7,3,0,0.94
2013-6-9,83,68,54,60,57,54,99,70,39,30.01,29.86,9,2,0,0.00
2013-6-10,70,62,53,59,57,53,99,84,63,30.08,29.89,6,2,0,0.60
2013-6-11,63,57,54,58,56,54,99,96,84,29.88,29.44,8,3,0,1.31
2013-6-12,72,63,55,58,55,52,99,79,54,29.67,29.42,17,4,0,0.04
2013-6-13,72,58,50,60,54,50,99,87,61,29.67,29.55,6,2,0,0.54
2013-6-14,84,63,51,58,54,51,99,77,35,29.62,29.52,7,3,0,0.81
2013-6-15,84,69,56,54,48,41,83,52,24,29.79,29.63,10,4,0,0.00
2013-6-16,79,66,51,60,55,50,96,71,41,29.80,29.55,7,2,0,0.00
2013-6-17,89,70,57,66,61,56,99,76,41,29.75,29.62,13,2,0,0.37
2013-6-18,75,62,56,64,59,56,99,92,67,29.81,29.74,9,2,0,0.32
2013-6-19,86,65,52,58,52,41,99,69,26,30.01,29.78,8,2,0,0.00
2013-6-20,87,67,49,57,52,48,99,64,29,30.13,30.02,7,2,0,0.00
2013-6-21,93,72,54,63,57,51,96,65,27,30.11,30.02,9,2,0,0.00
2013-6-22,88,74,59,68,62,59,99,70,41,30.07,29.93,11,2,0,0.00
2013-6-23,94,78,64,73,66,60,88,68,48,30.00,29.78,9,3,0,0.00
2013-6-24,98,81,69,74,69,64,96,71,40,29.84,29.67,8,3,0,0.01
2013-6-25,95,80,69,73,69,65,99,71,43,29.76,29.52,11,3,0,0.16
2013-6-26,85,74,65,73,70,64,99,90,65,29.70,29.55,5,2,0,0.37
2013-6-27,72,65,60,67,63,60,99,95,85,29.73,29.62,7,3,0,0.14
2013-6-28,85,69,57,75,66,57,99,92,69,29.63,29.31,8,3,0,0.49
2013-6-29,87,77,70,73,69,67,97,79,54,29.55,29.36,10,3,0,0.00
2013-6-30,91,78,66,74,70,65,99,79,53,29.77,29.55,9,3,0,0.00
2013-7-1,83,74,71,74,72,69,99,91,76,29.92,29.77,6,2,0,2.09
2013-7-2,84,71,60,76,69,59,99,92,74,30.07,29.91,12,2,0,0.02
2013-7-3,92,76,60,76,69,60,99,81,55,30.07,29.95,7,3,0,0.00
2013-7-4,97,84,70,77,74,70,99,73,48,30.05,29.89,8,3,0,0.00
2013-7-5,97,86,75,78,74,72,93,71,47,30.00,29.83,8,3,0,0.00
2013-7-6,94,83,72,76,72,62,96,71,43,29.92,29.79,8,3,0,0.00
2013-7-7,95,79,65,78,70,62,95,74,51,29.87,29.71,6,1,0,0.00
2013-7-8,86,76,65,75,71,64,98,86,70,29.92,29.74,8,2,0,0.35
2013-7-9,75,69,65,69,66,64,98,90,80,29.97,29.90,6,2,0,0.00
2013-7-10,86,73,65,77,70,64,99,91,71,29.93,29.62,8,2,0,0.20
2013-7-11,86,75,70,76,72,68,99,91,72,29.78,29.60,5,1,0,0.06
2013-7-12,79,72,65,68,61,56,94,70,48,30.05,29.78,12,4,0,0.00
2013-7-13,84,72,64,74,65,59,98,81,68,30.16,30.05,5,2,0,0.00
2013-7-14,94,80,68,77,72,67,99,79,51,30.15,30.01,5,1,0,0.00
2013-7-15,99,82,69,76,72,69,99,76,41,30.06,29.90,6,2,0,0.00
2013-7-16,98,83,69,73,69,66,92,66,40,30.01,29.92,10,2,0,0.00
2013-7-17,98,84,68,76,72,67,99,70,42,30.03,29.80,6,2,0,0.00
2013-7-18,96,83,73,76,72,69,91,72,45,29.85,29.74,6,2,0,0.04
2013-7-19,99,86,70,77,74,69,99,70,42,29.77,29.50,11,3,0,0.00
2013-7-20,95,84,72,78,72,63,88,69,47,29.63,29.45,8,3,0,0.00
2013-7-21,86,75,64,69,64,61,94,72,48,29.83,29.63,6,2,0,0.00
2013-7-22,83,73,66,71,68,64,99,85,66,29.87,29.73,9,3,0,0.00
2013-7-23,83,71,68,76,70,66,99,96,77,29.73,29.38,5,2,0,1.66
2013-7-24,88,76,63,75,67,52,99,76,49,29.83,29.42,9,2,0,0.00
2013-7-25,64,60,57,59,54,48,99,80,67,29.98,29.83,6,2,0,0.35
2013-7-26,74,66,59,70,63,59,99,92,83,29.94,29.79,11,3,0,0.21
2013-7-27,88,74,58,70,63,57,99,74,40,29.92,29.82,6,2,0,0.00
2013-7-28,82,71,62,72,67,62,99,88,70,29.87,29.80,8,3,0,0.02
2013-7-29,88,73,66,73,69,65,99,88,59,29.89,29.78,5,2,0,0.51
2013-7-30,88,73,60,67,60,55,99,68,33,29.95,29.87,9,3,0,0.00
2013-7-31,86,72,58,66,60,56,99,71,41,30.00,29.87,6,2,0,0.00
2013-8-1,84,69,59,68,63,58,99,83,51,29.89,29.72,7,1,0,0.08
2013-8-2,88,72,64,70,64,58,99,80,41,29.73,29.62,7,2,0,0.77
2013-8-3,84,70,60,66,62,58,99,78,49,29.71,29.61,7,2,0,0.00
2013-8-4,82,68,56,66,58,54,98,72,41,29.75,29.61,7,2,0,0.17
2013-8-5,80,65,53,54,48,38,93,59,23,29.91,29.75,17,4,0,0.00
2013-8-6,83,66,48,57,52,47,99,67,36,30.01,29.91,7,1,0,0.00
2013-8-7,84,68,53,63,56,52,99,68,35,30.06,29.95,7,2,0,0.00
2013-8-8,86,73,64,73,66,57,94,80,63,29.97,29.84,9,3,0,0.01
2013-8-9,76,72,69,74,71,68,99,96,91,29.87,29.58,8,2,0,1.23
2013-8-10,86,74,63,70,62,54,99,70,38,29.86,29.62,10,3,0,0.00
2013-8-11,83,67,51,61,56,51,99,72,38,29.95,29.83,9,1,0,0.00
2013-8-12,86,70,55,63,58,54,99,72,38,29.88,29.75,6,2,0,0.00
2013-8-13,79,68,62,69,64,59,98,89,66,29.77,29.52,5,1,0,0.05
2013-8-14,77,66,57,63,55,50,99,69,44,29.81,29.51,18,4,0,0.00
2013-8-15,81,64,50,56,52,48,97,68,36,29.96,29.82,10,3,0,0.00
2013-8-16,83,66,51,60,55,51,99,71,39,30.05,29.97,6,2,0,0.00
2013-8-17,84,67,53,62,57,52,99,74,42,30.15,30.05,5,1,0,0.00
2013-8-18,82,68,55,66,61,54,99,78,51,30.15,29.92,5,1,0,0.00
2013-8-19,86,72,59,64,61,58,97,72,46,29.92,29.79,6,2,0,0.00
2013-8-20,89,74,60,66,63,58,96,70,42,29.93,29.83,6,2,0,0.00
2013-8-21,92,75,60,68,64,59,99,73,39,30.00,29.84,7,2,0,0.00
2013-8-22,92,76,62,72,67,62,98,76,43,29.88,29.64,9,2,0,0.00
2013-8-23,82,73,61,68,58,49,92,63,38,29.97,29.66,11,4,0,0.00
2013-8-24,81,65,52,55,50,44,92,61,29,30.19,29.98,7,2,0,0.00
2013-8-25,86,68,51,60,54,49,99,67,29,30.24,30.02,10,2,0,0.00
2013-8-26,84,72,62,69,63,56,92,75,55,30.03,29.70,6,2,0,0.02
2013-8-27,87,75,66,70,66,63,96,77,49,29.73,29.65,7,2,0,0.00
2013-8-28,86,73,61,69,65,60,99,79,53,29.83,29.67,6,2,0,0.00
2013-8-29,66,64,61,64,61,58,96,90,85,29.94,29.80,9,3,0,0.02
2013-8-30,88,70,56,69,63,56,99,80,50,29.89,29.64,8,2,0,0.00
2013-8-31,84,74,66,76,70,65,99,90,76,29.68,29.61,5,1,0,0.28
2013-9-1,88,76,70,75,71,68,98,86,63,29.72,29.63,7,2,0,0.00
2013-9-2,81,74,71,77,72,70,99,93,85,29.69,29.53,4,1,0,0.30
2013-9-3,85,73,61,72,68,57,99,84,61,29.64,29.53,6,2,0,0.00
2013-9-4,83,69,55,62,56,54,98,68,37,29.76,29.63,9,3,0,0.00
2013-9-5,72,62,50,61,51,41,94,70,34,30.02,29.70,9,2,0,0.06
2013-9-6,73,57,42,47,42,38,90,63,31,30.11,29.94,6,2,0,0.00
2013-9-7,82,64,46,59,52,44,96,69,35,29.94,29.70,9,2,0,0.00
2013-9-8,75,63,49,61,51,40,90,66,37,29.97,29.59,11,3,0,0.01
2013-9-9,73,57,41,49,44,39,96,64,35,30.10,29.96,7,2,0,0.00
2013-9-10,77,65,51,72,61,47,94,88,81,30.02,29.87,8,2,0,0.15
2013-9-11,97,81,66,78,71,66,99,76,45,29.91,29.74,10,2,0,0.00
2013-9-12,90,75,66,76,69,64,98,81,60,29.79,29.50,11,2,0,1.12
2013-9-13,80,68,59,70,64,54,99,88,67,29.61,29.42,7,2,0,0.24
2013-9-14,69,60,50,55,52,48,97,77,56,29.91,29.61,9,3,0,0.00
2013-9-15,75,58,45,53,49,45,99,76,36,30.02,29.88,5,1,0,0.00
2013-9-16,69,57,46,57,49,37,90,76,58,30.11,29.86,9,3,0,0.02
2013-9-17,66,51,39,46,39,34,94,68,38,30.30,30.12,11,3,0,0.00
2013-9-18,77,56,39,51,44,39,99,72,30,30.19,29.98,6,1,0,0.00
2013-9-19,71,55,44,57,50,43,99,84,53,29.99,29.87,6,0,0,0.00
2013-9-20,82,63,48,59,54,47,99,76,41,29.95,29.82,5,1,0,0.00
2013-9-21,76,63,49,64,58,49,99,85,62,29.87,29.56,10,2,0,0.00
2013-9-22,72,64,52,65,56,42,97,76,46,29.68,29.43,8,4,0,0.70
2013-9-23,62,52,44,44,41,38,84,67,49,29.85,29.68,14,4,0,0.00
2013-9-24,68,53,41,44,41,37,87,67,40,29.85,29.67,11,3,0,0.00
2013-9-25,71,55,42,52,47,41,98,77,49,29.84,29.72,6,2,0,0.00
2013-9-26,71,58,51,52,48,46,86,72,47,29.99,29.84,6,1,0,0.00
2013-9-27,70,58,50,56,51,49,98,79,61,30.12,29.99,6,2,0,0.00
2013-9-28,74,58,48,57,51,47,99,80,52,30.21,30.11,7,2,0,0.00
2013-9-29,71,54,44,54,47,42,98,81,38,30.13,29.97,5,1,0,0.00
2013-9-30,72,54,43,55,48,42,99,84,49,29.99,29.81,5,1,0,0.00
2013-10-1,78,60,44,57,51,44,99,76,39,29.83,29.69,7,2,0,0.00
2013-10-2,82,66,51,62,57,50,99,76,47,29.80,29.66,18,2,0,0.00
2013-10-3,80,62,49,57,52,46,99,73,31,29.95,29.79,6,2,0,0.00
2013-10-4,64,56,49,60,54,48,99,92,83,29.96,29.89,4,1,0,0.36
2013-10-5,70,60,54,60,56,54,99,86,66,29.98,29.90,5,1,0,0.00
2013-10-6,59,55,52,56,54,50,99,96,87,30.10,29.97,8,2,0,0.42
2013-10-7,77,62,55,70,60,54,99,94,74,29.99,29.63,10,2,0,0.23
2013-10-8,66,55,42,56,45,37,99,73,36,30.24,29.75,8,2,0,0.00
2013-10-9,62,45,37,47,41,36,99,88,55,30.36,30.23,9,1,0,0.00
2013-10-10,59,47,38,52,45,38,99,93,78,30.24,30.06,3,0,0,0.00
2013-10-11,58,48,44,52,46,44,99,93,70,30.06,29.97,3,0,0,0.00
2013-10-12,56,51,44,54,50,43,99,95,90,30.28,30.02,8,2,0,0.01
2013-10-13,61,50,39,50,46,38,99,87,61,30.33,30.26,8,2,0,0.00
2013-10-14,67,50,36,50,42,36,99,79,41,30.28,30.10,4,1,0,0.00
2013-10-15,65,56,50,54,50,45,98,81,65,30.14,30.05,6,1,0,0.00
2013-10-16,64,55,49,54,51,49,99,89,65,30.05,29.78,5,1,0,0.00
2013-10-17,76,59,47,61,52,46,99,81,44,29.78,29.56,8,1,0,0.00
2013-10-18,68,59,46,60,50,40,99,75,43,29.75,29.45,17,3,0,0.08
2013-10-19,69,54,39,47,42,37,97,66,38,29.83,29.59,6,2,0,0.00
2013-10-20,63,52,39,49,40,33,99,66,36,29.86,29.53,11,3,0,0.00
2013-10-21,68,50,33,43,38,33,98,70,36,29.98,29.84,8,1,0,0.00
2013-10-22,66,51,38,52,44,37,99,78,57,29.85,29.55,8,2,0,0.00
2013-10-23,54,44,33,37,34,32,97,70,43,29.66,29.44,5,1,0,0.00
2013-10-24,54,44,34,35,30,25,84,59,35,29.74,29.50,13,4,0,0.00
2013-10-25,51,41,30,35,29,25,95,65,39,30.01,29.74,9,3,0,0.00
2013-10-26,55,41,26,35,28,24,98,64,30,30.02,29.71,11,3,0,0.00
2013-10-27,54,47,38,37,33,28,81,59,38,29.90,29.65,14,4,0,0.00
2013-10-28,59,42,29,35,29,22,97,63,35,30.21,29.91,12,3,0,0.00
2013-10-29,48,35,25,28,21,17,84,61,29,30.32,30.21,7,1,0,0.00
2013-10-30,52,37,28,39,31,24,98,80,60,30.22,30.05,3,0,0,0.02
2013-10-31,59,44,29,58,43,28,99,95,85,30.10,29.64,7,1,0,0.19
2013-11-1,69,63,51,63,57,50,98,82,63,29.62,29.28,18,5,0,0.06
2013-11-2,67,53,42,50,44,40,99,74,38,29.57,29.43,7,2,0,0.02
2013-11-3,48,40,30,44,26,12,88,59,30,30.27,29.56,10,4,0,0.00
2013-11-4,44,31,22,19,16,13,84,55,29,30.57,30.29,5,2,0,0.00
2013-11-5,50,36,22,32,26,18,85,68,41,30.59,30.37,5,1,0,0.00
2013-11-6,61,49,36,46,39,30,84,71,51,30.37,29.88,10,2,0,0.00
2013-11-7,64,53,39,56,47,29,91,82,65,29.88,29.53,10,3,0,0.13
2013-11-8,48,40,33,30,26,20,71,56,45,29.93,29.66,10,5,0,0.01
2013-11-9,45,37,29,29,23,20,74,58,38,30.07,29.88,10,3,0,0.00
2013-11-10,55,44,37,44,35,28,96,71,53,29.87,29.57,14,3,0,0.05
2013-11-11,53,44,38,32,27,24,67,52,34,29.96,29.70,16,4,0,0.00
2013-11-12,47,34,26,37,23,15,86,63,50,30.04,29.73,9,4,0,0.08
2013-11-13,36,27,21,16,13,9,77,57,34,30.15,29.99,11,3,0,0.00
2013-11-14,52,37,25,25,21,15,74,54,31,30.00,29.88,13,2,0,0.00
2013-11-15,62,41,26,25,20,13,78,47,15,30.04,29.95,6,1,0,0.00
2013-11-16,61,43,32,30,27,23,79,57,24,30.18,30.03,7,1,0,0.00
2013-11-17,49,40,29,45,36,25,98,84,71,30.18,29.70,2,0,0,0.03
2013-11-18,65,55,45,60,45,30,99,72,40,29.69,29.37,12,4,0,0.23
2013-11-19,48,38,30,30,21,14,58,49,38,30.13,29.51,14,6,0,0.00
2013-11-20,41,31,21,15,13,11,77,49,29,30.49,30.14,12,4,0,0.00
2013-11-21,48,32,18,26,19,14,85,62,27,30.51,30.24,6,1,0,0.00
2013-11-22,44,40,34,43,38,26,99,91,72,30.23,29.65,3,0,0,0.24
2013-11-23,45,38,29,44,25,6,99,62,37,29.77,29.62,19,6,0,0.00
2013-11-24,29,23,19,14,2,-5,67,40,25,30.03,29.63,24,9,0,0.03
2013-11-25,33,23,13,14,0,-13,58,38,15,30.22,30.04,19,4,0,0.00
2013-11-26,39,33,29,32,22,14,97,65,48,30.20,29.91,7,1,0,0.15
2013-11-27,61,48,33,60,47,32,99,96,84,29.90,29.06,14,5,0,1.92
2013-11-28,37,29,20,32,15,4,84,57,32,30.30,29.29,20,6,0,0.00
2013-11-29,32,23,17,14,8,1,82,55,29,30.61,30.31,10,2,0,0.00
2013-11-30,33,22,10,21,12,5,83,66,47,30.67,30.28,6,1,0,0.00
2013-12-1,36,33,29,35,30,20,98,88,69,30.28,29.88,4,1,0,0.26
2013-12-2,39,36,35,37,36,34,99,97,93,29.87,29.77,4,1,0,0.01
2013-12-3,49,38,31,37,33,28,98,83,54,29.81,29.70,6,2,0,0.00
2013-12-4,44,32,26,29,26,24,98,79,50,30.06,29.80,8,1,0,0.00
2013-12-5,40,36,26,39,34,24,99,92,83,30.07,29.76,4,1,0,0.00
2013-12-6,48,43,32,46,39,28,99,86,52,30.01,29.70,6,2,0,0.19
2013-12-7,40,31,23,33,25,17,98,79,52,30.31,29.93,8,3,0,0.25
2013-12-8,31,26,18,20,17,13,87,69,53,30.46,30.30,6,1,0,0.00
2013-12-9,35,30,24,34,28,16,99,91,63,30.36,29.73,4,2,0,0.25
2013-12-10,34,29,22,32,26,12,99,89,60,29.84,29.63,12,2,0,0.00
2013-12-11,29,21,17,16,14,13,86,77,56,30.04,29.85,7,3,0,0.01
2013-12-12,22,14,8,17,8,0,85,76,38,30.12,29.90,8,2,0,0.00
2013-12-13,20,15,11,13,7,0,77,70,59,30.24,29.83,7,4,0,0.00
2013-12-14,16,11,7,12,0,-6,86,61,41,30.48,30.04,12,3,0,0.00
2013-12-15,29,21,15,25,18,12,91,89,86,30.01,29.28,10,4,0,0.00
2013-12-16,28,21,11,20,10,3,91,63,34,30.06,29.58,17,5,0,0.00
2013-12-17,16,7,-4,11,1,-7,87,76,50,30.15,29.87,6,1,0,0.00
2013-12-19,27,27,27,21,21,21,80,80,80,29.94,29.94,0,0,0,0.00
2013-12-20,39,36,30,32,29,25,83,78,73,29.95,29.77,3,1,0,0.18
2013-12-21,57,47,35,46,40,31,95,79,62,29.80,29.70,6,1,0,0.00
2013-12-22,48,37,32,47,37,31,99,99,97,29.89,29.66,8,3,0,0.04
2013-12-23,36,32,31,36,32,30,99,99,97,29.95,29.83,5,2,0,0.65
2013-12-24,36,31,25,35,20,13,98,65,48,30.05,29.90,10,3,0,0.01
2013-12-25,23,18,12,7,3,-2,74,53,38,30.40,30.32,7,2,0,0.00
2013-12-26,29,21,13,23,17,6,94,84,69,30.35,29.94,4,1,0,0.00
2013-12-27,34,25,16,21,19,14,94,78,56,30.12,30.04,11,2,0,0.00
2013-12-28,46,30,18,28,23,15,92,76,47,30.06,29.83,9,2,0,0.09
2013-12-29,42,33,26,36,30,22,98,87,63,29.88,29.30,9,2,0,1.34
2013-12-30,41,31,14,34,22,4,99,72,42,30.02,29.37,14,4,0,0.01
2013-12-31,25,16,10,11,3,-4,82,56,42,30.02,29.87,7,2,0,0.00
2014-1-1,26,20,10,11,7,5,80,60,41,30.23,30.03,14,3,0,0.00
2014-1-2,17,9,-1,13,5,-4,85,83,80,30.21,29.73,11,5,0,0.00